Flag for Russia Weather past 2 weeks in Samara, Russia

Now
77 °F

Thundershowers. Mostly cloudy.


Feels Like: 78 °F
Forecast: 61 / 74 °F
Wind: 13 mph from West

Location: Samara

Current Time: Aug 1, 2015 at 11:23:53 PM

Latest Report: Aug 1, 2015 at 11:00 PM


Visibility: N/A

Pressure: 29.80 "Hg

Humidity: 44%

Dew point: 54 °F

Location of SamaraLocation

Historic Weather in Samara — Graph

°F

Samara temperature yesterday

Maximum temperature yesterday: 84 °F (at 3:30 PM)
Minimum temperature yesterday: 61 °F (at 1:30 AM)
Average temperature yesterday: 75 °F

Past Weeks' High & Low Weather Summary

 TemperatureHumidityPressure
High86 °F (Jul 29, 4:30 PM)88% (Jul 21, 7:30 PM)29.98 "Hg (Jul 21, 7:30 PM)
Low52 °F (Jul 20, 12:30 AM)19% (Jul 29, 4:30 PM)29.50 "Hg (Jul 21, 2:00 PM)
Average69 °F51%29.83 "Hg
* Reported Jul 17 10:00 PM — Aug 1 10:00 PM, Samara, Weather by CustomWeather, © 2015

Note: Actual official high and low records may vary slightly from our data, if they occured in-between our weather recording intervals... More about our weather records

Advertising

Samara weather history for previous 24 hours

 ConditionsComfort  
Time TempWeatherWind HumidityBarometerVisibility
10:00 PM
Sat, Aug 1
77 °FMostly cloudy.10 mph44%29.80 "HgN/A
9:30 PM79 °FMore clouds than sun.15 mph42%29.80 "HgN/A
9:00 PM79 °FMore clouds than sun.17 mph42%29.80 "HgN/A
8:30 PM79 °FMore clouds than sun.13 mph42%29.80 "HgN/A
8:00 PM81 °FMore clouds than sun.15 mph37%29.77 "HgN/A
7:30 PM79 °FMostly cloudy.8 mph42%29.77 "HgN/A
7:00 PM77 °FThunderstorms. More clouds than sun.10 mph47%29.77 "HgN/A
6:30 PM75 °FThundershowers. More clouds than sun.17 mph54%29.80 "HgN/A
6:00 PM81 °FMore clouds than sun.17 mph34%29.80 "HgN/A
5:30 PM82 °FSprinkles. More clouds than sun.8 mph35%29.80 "HgN/A
5:00 PM82 °FSprinkles. More clouds than sun.6 mph40%29.80 "HgN/A
4:30 PM82 °FSprinkles. More clouds than sun.15 mph40%29.83 "HgN/A
4:00 PM86 °FMore clouds than sun.10 mph35%29.83 "HgN/A
3:30 PM86 °FMore clouds than sun.8 mph35%29.83 "HgN/A
3:00 PM86 °FSunny.10 mph35%29.83 "Hg10 mi
2:30 PM86 °FPassing clouds.10 mph35%29.83 "HgN/A
2:00 PM86 °FSunny.13 mph38%29.86 "Hg10 mi
1:30 PM86 °FPassing clouds.13 mph33%29.86 "HgN/A
1:00 PM84 °FPassing clouds.13 mph37%29.89 "HgN/A
12:30 PM82 °FSunny.13 mph40%29.89 "Hg10 mi
12:00 PM81 °FPassing clouds.13 mph45%29.92 "HgN/A
11:30 AM81 °FPassing clouds.10 mph45%29.92 "HgN/A
11:00 AM79 °FPassing clouds.10 mph48%29.92 "HgN/A
10:30 AM77 °FSunny.10 mph47%29.95 "Hg10 mi
10:00 AM77 °FSunny.10 mph47%29.95 "Hg10 mi
9:30 AM75 °FSunny.10 mph47%29.95 "Hg10 mi
8:30 AM72 °FCloudy.8 mph65%29.95 "HgN/A
8:00 AM68 °FCloudy.6 mph73%29.95 "HgN/A
7:30 AM68 °FMore clouds than sun.6 mph78%29.95 "HgN/A
7:00 AM68 °FMore clouds than sun.6 mph78%29.95 "HgN/A
6:30 AM66 °FMore clouds than sun.6 mph78%29.95 "HgN/A
6:00 AM66 °FSprinkles. More clouds than sun.3 mph78%29.98 "HgN/A
5:30 AM68 °FMostly cloudy.No wind69%29.95 "HgN/A
5:00 AM66 °FMostly cloudy.No wind78%29.95 "HgN/A
4:30 AM66 °FMostly cloudy.1 mph73%29.92 "HgN/A
4:00 AM64 °FPartly cloudy.No wind78%29.92 "HgN/A
3:30 AM64 °FPartly cloudy.No wind78%29.92 "HgN/A
3:00 AM68 °FClear.1 mph69%29.92 "Hg10 mi
2:30 AM66 °FPassing clouds.3 mph73%29.92 "HgN/A
1:30 AM70 °FClear.3 mph64%29.92 "Hg10 mi
1:00 AM70 °FClear.3 mph64%29.92 "Hg10 mi
12:30 AM68 °FClear.3 mph69%29.92 "Hg10 mi
12:00 AM72 °FClear.3 mph61%29.89 "Hg10 mi
11:30 PM
Fri, Jul 31
72 °FClear.3 mph61%29.89 "Hg10 mi
11:00 PM73 °FClear.3 mph57%29.89 "Hg10 mi
Weather by CustomWeather, © 2015

See weather overviewHow to use our weather pages